Regional Weather Roundup
Issued by NWS

Home | Current Version | Previous Version | Graphics & Text | Print | Product List | Glossary On
Versions: 1 2 3 4 5 6 7 8 9 10 11 12 13 14 15 16 17 18 19 20 21 22 23 24 25 26 27 28 29 30 31 32 33 34 35 36 37 38 39 40 41 42 43 44 45 46 47 48 49 50
805
ASUS44 KJAN 011003
RWRMS

MISSISSIPPI HOURLY WEATHER ROUNDUP
NATIONAL WEATHER SERVICE JACKSON MS
500 AM CDT WED APR 01 2015

NOTE: "FAIR: INDICATES FEW OR NO CLOUDS BELOW 12,000 FEET WITH NO
SIGNIFICANT WEATHER AND/OR OBSTRUCTIONS TO VISIBILITY.

MSZ001>002-007>008-010>013-018>021-025>028-034>036-011100-
NORTHWEST MISSISSIPPI

CITY           SKY/WX    TMP DP  RH WIND       PRES   REMARKS
CLARKSDALE     CLOUDY    61  61 100 SE7       29.99R
CLEVELAND      FAIR      61  61 100 SE5       29.97S
GREENWOOD      MOCLDY    59  55  87 CALM      29.99R
GREENVILLE     PTCLDY    59  57  93 CALM      29.97R
OLIVE BRANCH   PTCLDY    57  57 100 CALM      29.98R
OXFORD         MOCLDY    57  55  94 SE5       30.01R
TUNICA         SUNNY     59  57  94 N3        29.98S
$$

MSZ003>006-009-014>017-022>024-029>033-037>039-011100-
NORTHEAST MISSISSIPPI

CITY           SKY/WX    TMP DP  RH WIND       PRES   REMARKS
COLUMBUS AFB   PTCLDY    58  58 100 CALM      30.00F
CORINTH        FOG       55  54  94 CALM      30.01R VSB 1/2
GOLDN TRIANGLE CLEAR     57  52  82 S6        30.00S
STARKVILLE     FAIR      57  54  88 CALM      30.01S
TUPELO         PTCLDY    56  54  93 SW3       30.01R
$$

MSZ040-058-011100-
CENTRAL MISSISSIPPI

CITY           SKY/WX    TMP DP  RH WIND       PRES   REMARKS
JACKSON INTL   PTCLDY    62  57  83 S3        30.01R
JACKSON HAWKNS MOCLDY    64  58  80 SW3       30.01R
MERIDIAN KEY   MOCLDY    60  57  89 N5        30.05R
MERIDIAN NAS   NOT AVBL
RAYMOND        FAIR      61  55  82 MISG      30.00R
VICKSBURG      CLEAR     60  58  92 S3        30.00R
$$

MSZ059>079-011100-
SOUTH MISSISSIPPI

CITY           SKY/WX    TMP DP  RH WIND       PRES   REMARKS
BROOKHAVEN       N/A     61  61 100 CALM      30.03R
HATTIESBURG    PTCLDY    60  58  92 CALM      30.03R
MCCOMB         FOG       63  62  97 SW8       30.01S VSB 3/4
NATCHEZ        PTCLDY    63  59  88 SW5       30.00F
PINE BELT      PTCLDY    57  54  88 CALM      30.02F
$$

MSZ080>082-011100-
COASTAL MISSISSIPPI

CITY           SKY/WX    TMP DP  RH WIND       PRES   REMARKS
BILOXI         PTCLDY    66  64  92 W6        30.01F
PASCAGOULA     PTCLDY    64  63  96 CALM      30.02S
GULFPORT       PTCLDY    61  59  93 SW3       30.02S
$$



USA.gov is the U.S. government's official web portal to all federal, state and local government web resources and services.